DW0937 Weather Reports


time (UTC)temp
F
wind
direction
speed
knots
gust
knots
rain 1hr
in
rain 24hr
in
rain mn
in
humidity
%
barometer
mb
20260504050639 56 188 0.9 1.7 0.00 0.00 0.00 47 1000.6
20260504045918 56 188 0.9 1.7 0.00 0.00 0.00 47 1000.7
20260504045417 56 204 0.9 1.7 0.00 0.00 0.00 46 1000.8
20260504044917 56 205 0.9 1.7 0.00 0.00 0.00 46 1000.9
20260504044417 56 205 0.9 1.7 0.00 0.00 0.00 46 1000.9
20260504043917 56 205 0.9 1.7 0.00 0.00 0.00 45 1001.0
20260504043417 56 209 0.9 1.7 0.00 0.00 0.00 45 1001.1
20260504042917 56 210 0.9 1.7 0.00 0.00 0.00 44 1001.1
20260504042641 56 211 0.9 1.7 0.00 0.00 0.00 45 1001.2
20260504041916 56 229 0.9 1.7 0.00 0.00 0.00 45 1001.3
20260504041417 56 231 0.9 1.7 0.00 0.00 0.00 45 1001.3
20260504040917 56 235 0.0 0.9 0.00 0.00 0.00 44 1001.4
20260504040414 56 237 0.0 0.9 0.00 0.00 0.00 44 1001.6
20260504035916 56 241 0.0 0.9 0.00 0.00 0.00 44 1001.7
20260504035412 57 241 0.0 0.9 0.00 0.00 0.00 44 1001.9
20260504034910 57 241 0.0 0.0 0.00 0.00 0.00 44 1002.0
20260504034409 57 241 0.0 0.0 0.00 0.00 0.00 44 1002.1
20260504033907 58 242 0.0 0.0 0.00 0.00 0.00 43 1002.2
20260504033407 58 242 0.0 0.0 0.00 0.00 0.00 41 1002.3
20260504032905 58 242 0.0 0.0 0.00 0.00 0.00 41 1002.3
20260504032407 58 242 0.0 0.0 0.00 0.00 0.00 41 1002.4
20260504031904 58 242 0.0 0.0 0.00 0.00 0.00 40 1002.4
20260504031631 59 242 0.0 0.0 0.00 0.00 0.00 40 1002.5
20260504030902 59 242 0.0 0.0 0.00 0.00 0.00 39 1002.5
20260504030620 59 242 0.0 0.0 0.00 0.00 0.00 38 1002.7
20260504025901 60 242 0.0 0.0 0.00 0.00 0.00 38 1002.7
20260504025401 60 242 0.0 0.9 0.00 0.00 0.00 38 1002.7
20260504024901 60 242 0.0 0.9 0.00 0.00 0.00 36 1002.8
20260504024402 60 242 0.0 2.6 0.00 0.00 0.00 36 1002.7
20260504023902 61 242 0.9 2.6 0.00 0.00 0.00 35 1002.8
20260504023357 61 252 0.9 2.6 0.00 0.00 0.00 34 1002.8
20260504022857 61 252 0.9 3.5 0.00 0.00 0.00 34 1002.8
20260504022356 62 248 0.9 3.5 0.00 0.00 0.00 33 1002.8
20260504021857 62 254 1.7 3.5 0.00 0.00 0.00 33 1002.8
20260504021354 62 250 1.7 3.5 0.00 0.00 0.00 33 1002.9
20260504020855 62 254 1.7 2.6 0.00 0.00 0.00 33 1002.9
20260504020355 62 250 0.9 2.6 0.00 0.00 0.00 32 1002.8
20260504015854 63 242 0.9 2.6 0.00 0.00 0.00 31 1002.9
20260504015354 63 228 0.9 3.5 0.00 0.00 0.00 31 1002.8
20260504014851 64 225 0.9 3.5 0.00 0.00 0.00 30 1002.8
20260504014350 64 227 0.9 2.6 0.00 0.00 0.00 30 1002.9
20260504013851 65 242 0.9 2.6 0.00 0.00 0.00 30 1002.9
20260504013350 65 245 1.7 4.3 0.00 0.00 0.00 29 1002.9
20260504012852 65 258 1.7 4.3 0.00 0.00 0.00 29 1003.0
20260504012349 66 246 0.9 3.5 0.00 0.00 0.00 28 1003.1
20260504011851 66 262 0.9 6.1 0.00 0.00 0.00 28 1003.0
20260504011403 66 266 0.9 6.1 0.00 0.00 0.00 28 1003.1
20260504010850 67 282 1.7 6.1 0.00 0.00 0.00 27 1003.1
20260504010349 67 276 1.7 6.1 0.00 0.00 0.00 27 1003.0
20260504005850 67 267 1.7 5.2 0.00 0.00 0.00 27 1003.1
20260504005607 67 231 2.6 7.8 0.00 0.00 0.00 27 1003.1
20260504004848 68 257 2.6 7.8 0.00 0.00 0.00 27 1003.1
20260504004350 68 275 2.6 8.7 0.00 0.00 0.00 26 1003.1
20260504003846 69 255 2.6 8.7 0.00 0.00 0.00 26 1003.1
20260504003346 69 262 1.7 5.2 0.00 0.00 0.00 26 1003.2
20260504002847 69 227 1.7 5.2 0.00 0.00 0.00 26 1003.2
20260504002344 69 269 2.6 7.0 0.00 0.00 0.00 26 1003.2
20260504002114 69 234 2.6 7.0 0.00 0.00 0.00 25 1003.2
20260504001340 69 244 1.7 6.1 0.00 0.00 0.00 26 1003.2
20260504000840 70 249 2.6 9.6 0.00 0.00 0.00 25 1003.2
20260504000342 70 256 2.6 9.6 0.00 0.00 0.00 26 1003.2
20260503235834 70 253 2.6 7.0 0.00 0.00 0.00 25 1003.3
20260503235325 70 286 2.6 7.0 0.00 0.00 0.00 25 1003.3
20260503234820 71 309 2.6 5.2 0.00 0.00 0.00 24 1003.3
20260503234313 71 294 2.6 9.6 0.00 0.00 0.00 23 1003.3
20260503233806 71 209 3.5 9.6 0.00 0.00 0.00 24 1003.3
20260503233542 71 276 4.3 9.6 0.00 0.00 0.00 23 1003.3
20260503233023 71 240 3.5 10.4 0.00 0.00 0.00 24 1003.3
20260503232305 71 275 3.5 10.4 0.00 0.00 0.00 23 1003.4
20260503231806 71 304 2.6 8.7 0.00 0.00 0.00 23 1003.5
20260503231305 72 212 2.6 8.7 0.00 0.00 0.00 22 1003.5
20260503230805 71 270 1.7 5.2 0.00 0.00 0.00 23 1003.6
20260503230305 72 281 2.6 7.0 0.00 0.00 0.00 22 1003.6
20260503225804 71 267 2.6 8.7 0.00 0.00 0.00 22 1003.7
20260503225304 72 272 3.5 8.7 0.00 0.00 0.00 22 1003.7
20260503224759 72 333 2.6 9.6 0.00 0.00 0.00 23 1003.7
20260503224258 72 247 1.7 8.7 0.00 0.00 0.00 23 1003.7
20260503223758 72 338 2.6 7.8 0.00 0.00 0.00 22 1003.7
20260503223300 71 290 2.6 7.8 0.00 0.00 0.00 22 1003.7
20260503222758 71 317 2.6 7.0 0.00 0.00 0.00 22 1003.7
20260503222259 71 313 2.6 9.6 0.00 0.00 0.00 22 1003.9
20260503222015 71 355 2.6 9.6 0.00 0.00 0.00 22 1003.8
20260503221247 71 299 2.6 7.8 0.00 0.00 0.00 22 1003.8
20260503221003 72 310 3.5 6.1 0.00 0.00 0.00 23 1003.8
20260503220510 72 313 4.3 8.7 0.00 0.00 0.00 22 1004.0
20260503215743 72 304 3.5 8.7 0.00 0.00 0.00 23 1003.9
20260503215243 71 227 2.6 8.7 0.00 0.00 0.00 24 1003.9
20260503214743 72 314 3.5 7.8 0.00 0.00 0.00 24 1004.0
20260503214243 71 297 4.3 7.8 0.00 0.00 0.00 22 1004.0
20260503213742 71 340 3.5 7.8 0.00 0.00 0.00 22 1004.1
20260503213240 71 313 3.5 7.0 0.00 0.00 0.00 23 1003.9
20260503212741 71 337 3.5 8.7 0.00 0.00 0.00 22 1003.9
20260503212241 71 350 3.5 10.4 0.00 0.00 0.00 22 1004.0
20260503211740 71 315 3.5 10.4 0.00 0.00 0.00 23 1004.1
20260503211241 72 333 3.5 7.0 0.00 0.00 0.00 20 1004.2
20260503210741 72 311 3.5 12.2 0.00 0.00 0.00 23 1004.2
20260503210239 72 331 2.6 12.2 0.00 0.00 0.00 21 1004.3
20260503205738 73 303 2.6 5.2 0.00 0.00 0.00 27 1004.3
20260503205233 72 223 2.6 5.2 0.00 0.00 0.00 26 1004.2
20260503205202 73 323 2.6 7.8 0.00 0.00 0.00 25 1004.3
20260503204826 73 295 2.6 7.0 0.00 0.00 0.00 25 1004.3
20260503203726 72 269 2.6 7.8 0.00 0.00 0.00 25 1004.3
20260503203227 71 325 2.6 7.0 0.00 0.00 0.00 24 1004.5
20260503202726 71 309 3.5 8.7 0.00 0.00 0.00 24 1004.4
20260503202226 72 287 3.5 8.7 0.00 0.00 0.00 24 1004.6
20260503201726 71 300 4.3 8.7 0.00 0.00 0.00 24 1004.6
20260503201452 71 336 3.5 8.7 0.00 0.00 0.00 23 1004.7
20260503200724 72 300 3.5 8.7 0.00 0.00 0.00 23 1004.6
20260503200224 72 341 3.5 8.7 0.00 0.00 0.00 23 1004.7
20260503195946 72 344 3.5 8.7 0.00 0.00 0.00 23 1004.7
20260503195225 71 355 2.6 8.7 0.00 0.00 0.00 24 1004.8
20260503194722 72 309 3.5 8.7 0.00 0.00 0.00 26 1004.9
20260503194222 72 330 4.3 10.4 0.00 0.00 0.00 24 1005.0
20260503193724 72 304 3.5 10.4 0.00 0.00 0.00 24 1005.0
20260503193217 72 299 3.5 8.7 0.00 0.00 0.00 25 1005.0
20260503192710 72 355 3.5 8.7 0.00 0.00 0.00 26 1005.0
20260503192210 71 348 3.5 8.7 0.00 0.00 0.00 26 1005.0
20260503191710 71 17 4.3 10.4 0.00 0.00 0.00 25 1005.1
20260503191210 71 313 3.5 10.4 0.00 0.00 0.00 24 1005.1
20260503190711 71 301 3.5 8.7 0.00 0.00 0.00 25 1005.0
20260503190212 71 342 3.5 14.8 0.00 0.00 0.00 25 1005.0
20260503185933 71 309 3.5 14.8 0.00 0.00 0.00 25 1004.9
20260503185210 71 0 3.5 9.6 0.00 0.00 0.00 29 1005.1
20260503184712 71 320 4.3 9.6 0.00 0.00 0.00 29 1005.1
20260503184217 71 330 3.5 8.7 0.00 0.00 0.00 28 1005.1
20260503183711 70 334 3.5 8.7 0.00 0.00 0.00 29 1005.1
20260503183211 70 336 4.3 8.7 0.00 0.00 0.00 30 1005.2
20260503182929 71 317 4.3 8.7 0.00 0.00 0.00 32 1005.2
20260503182200 71 309 4.3 8.7 0.00 0.00 0.00 32 1005.3
20260503181701 70 257 3.5 7.8 0.00 0.00 0.00 34 1005.2
20260503181432 71 290 3.5 10.4 0.00 0.00 0.00 32 1005.2
20260503180701 70 331 3.5 10.4 0.00 0.00 0.00 31 1005.3
20260503180421 70 355 3.5 8.7 0.00 0.00 0.00 35 1005.3
20260503175701 70 329 3.5 8.7 0.00 0.00 0.00 34 1005.3
20260503175428 70 338 3.5 10.4 0.00 0.00 0.00 34 1005.4
20260503174700 69 323 4.3 10.4 0.00 0.00 0.00 34 1005.4
20260503174200 70 337 3.5 9.6 0.00 0.00 0.00 34 1005.5
20260503173701 70 327 3.5 9.6 0.00 0.00 0.00 36 1005.4
20260503173408 69 338 3.5 11.3 0.00 0.00 0.00 36 1005.5
20260503173255 69 315 4.3 11.3 0.00 0.00 0.00 34 1005.4
20260503172158 70 312 3.5 11.3 0.00 0.00 0.00 37 1005.5
20260503171658 69 306 3.5 10.4 0.00 0.00 0.00 40 1005.4
20260503171159 69 317 3.5 10.4 0.00 0.00 0.00 36 1005.5
20260503170918 69 309 4.3 9.6 0.00 0.00 0.00 39 1005.6
20260503170159 69 331 4.3 9.6 0.00 0.00 0.00 37 1005.7
20260503150655 64 323 4.3 12.2 0.00 0.00 0.00 43 1005.3
20260503150152 63 315 4.3 12.2 0.00 0.00 0.00 43 1005.3
20260503140150 60 5 3.5 5.2 0.00 0.00 0.00 48 1005.0
20260503131406 55 309 2.6 7.8 0.00 0.00 0.00 51 1004.5
20260503131128 55 305 1.7 5.2 0.00 0.00 0.00 52 1004.5
20260503130138 54 321 0.9 3.5 0.00 0.00 0.00 54 1004.5
20260503120124 50 257 0.9 3.5 0.00 0.00 0.00 60 1003.9
20260503110114 51 227 0.9 2.6 0.00 0.00 0.00 55 1003.2
20260503100111 54 165 1.7 3.5 0.00 0.00 0.00 50 1003.7
20260503081542 57 200 1.7 5.2 0.00 0.00 0.00 47 1004.3
20260503081042 57 192 2.6 8.7 0.00 0.00 0.00 48 1004.4
20260503080541 57 200 3.5 8.7 0.00 0.00 0.00 48 1004.4
20260503072530 56 196 1.7 5.2 0.00 0.00 0.00 54 1004.7
20260503072026 56 182 1.7 5.2 0.00 0.00 0.00 54 1004.7
20260503071525 56 187 1.7 5.2 0.00 0.00 0.00 55 1004.8
20260503071023 56 189 1.7 5.2 0.00 0.00 0.00 55 1004.9
20260503070525 56 164 1.7 5.2 0.00 0.00 0.00 56 1005.0